Location: Bijele Vode
(45.2833°N, 16.2000°E)
Time: 14:03:22
(UTC+00:00)

NOSS 2-2 (C) - Pass Details

Date: 18 September 2020
Orbit: 468 x 1740 km, 63.3° (Epoch: 19 October)

Event Time Altitude Azimuth Distance (km) Brightness Sun altitude
Rises 18:14:56 0° 212° (SSW) 2,516 6.9 -13.8°
Reaches altitude 10° 18:17:00 10° 211° (SSW) 1,622 5.9 -14.2°
Maximum altitude 18:20:28 74° 126° (SE) 504 2.9 -14.8°
Drops below altitude 10° 18:24:17 10° 41° (NE) 1,779 5.7 -15.4°
Sets 18:26:39 0° 40° (NE) 2,792 6.7 -15.8°
